• In Netherlands
  • List of Countries
  • For 7 days
  • Water Temperature
  • Satellite Maps
  • Weather Map
  • Weather Widgets
  • user-avatar
    Login

    Hourly Weather Algiers

    Today, 25 April, Tuesday

    Time Temperature Precipitation Wind Pressure Humidity
    00:00 +14°C° 0 mm 2 mps 747 mmHg 76%
    01:00 +14°C° 0 mm 2 mps 746 mmHg 76%
    02:00 +14°C° 0 mm 2 mps 746 mmHg 76%
    03:00 +14°C° 0 mm 2 mps 746 mmHg 75%
    04:00 +15°C° 0 mm 2 mps 746 mmHg 71%
    05:00 +16°C° 0 mm 2 mps 746 mmHg 67%
    06:00 +20°C° 0 mm 1 mps 746 mmHg 70%
    07:00 +21°C° 0 mm 1 mps 746 mmHg 62%
    08:00 +23°C° 0 mm 1 mps 746 mmHg 54%
    09:00 +23°C° 0 mm 0 mps 746 mmHg 46%
    10:00 +25°C° 0 mm 1 mps 746 mmHg 46%
    11:00 +26°C° 0 mm 2 mps 745 mmHg 45%
    12:00 +27°C° 0 mm 3 mps 745 mmHg 45%
    13:00 +26°C° 0.1 mm 3 mps 745 mmHg 48%
    14:00 +25°C° 0.1 mm 3 mps 744 mmHg 51%
    15:00 +25°C° 0.1 mm 3 mps 744 mmHg 54%
    16:00 +24°C° 0.2 mm 3 mps 744 mmHg 61%
    17:00 +21°C° 0.2 mm 2 mps 743 mmHg 69%
    18:00 +20°C° 0.2 mm 2 mps 743 mmHg 76%
    19:00 +19°C° 0.2 mm 2 mps 744 mmHg 78%
    20:00 +18°C° 0.2 mm 2 mps 744 mmHg 80%
    21:00 +17°C° 0.2 mm 2 mps 744 mmHg 82%
    22:00 +17°C° 0 mm 2 mps 744 mmHg 81%
    23:00 +17°C° 0 mm 2 mps 744 mmHg 80%

    Tomorrow, 26 April, Wednesday

    Time Temperature Precipitation Wind Pressure Humidity
    00:00 +17°C° 0 mm 2 mps 744 mmHg 79%
    01:00 +17°C° 0 mm 2 mps 743 mmHg 79%
    02:00 +16°C° 0 mm 2 mps 743 mmHg 79%
    03:00 +16°C° 0 mm 2 mps 743 mmHg 80%
    04:00 +17°C° 0 mm 2 mps 743 mmHg 78%
    05:00 +17°C° 0 mm 2 mps 743 mmHg 77%
    06:00 +18°C° 0 mm 2 mps 743 mmHg 76%
    07:00 +20°C° 0.1 mm 2 mps 743 mmHg 68%
    08:00 +24°C° 0.1 mm 2 mps 743 mmHg 60%
    09:00 +26°C° 0.1 mm 2 mps 744 mmHg 52%
    10:00 +27°C° 0 mm 3 mps 744 mmHg 49%
    11:00 +28°C° 0 mm 3 mps 743 mmHg 45%
    12:00 +29°C° 0 mm 4 mps 743 mmHg 42%
    13:00 +28°C° 0.4 mm 4 mps 743 mmHg 47%
    14:00 +27°C° 0.4 mm 4 mps 743 mmHg 52%
    15:00 +26°C° 0.4 mm 4 mps 743 mmHg 56%
    16:00 +24°C° 1.1 mm 3 mps 743 mmHg 66%
    17:00 +21°C° 1.1 mm 3 mps 743 mmHg 76%
    18:00 +19°C° 1.1 mm 2 mps 743 mmHg 87%
    19:00 +19°C° 1.1 mm 2 mps 743 mmHg 88%
    20:00 +19°C° 1.1 mm 2 mps 744 mmHg 90%
    21:00 +18°C° 1.1 mm 3 mps 744 mmHg 91%
    22:00 +19°C° 0.1 mm 2 mps 744 mmHg 90%
    23:00 +19°C° 0.1 mm 2 mps 744 mmHg 88%

    Day after tomorrow, 27 April, Thursday

    Time Temperature Precipitation Wind Pressure Humidity
    00:00 +20°C° 0.1 mm 1 mps 744 mmHg 86%
    01:00 +19°C° 0 mm 1 mps 743 mmHg 86%
    02:00 +19°C° 0 mm 1 mps 743 mmHg 86%
    03:00 +18°C° 0 mm 1 mps 743 mmHg 85%
    04:00 +19°C° 0 mm 1 mps 743 mmHg 85%
    05:00 +19°C° 0 mm 1 mps 743 mmHg 84%
    06:00 +19°C° 0 mm 1 mps 743 mmHg 84%
    07:00 +21°C° 0 mm 1 mps 743 mmHg 72%
    08:00 +23°C° 0 mm 1 mps 743 mmHg 61%
    09:00 +26°C° 0 mm 1 mps 744 mmHg 50%
    10:00 +26°C° 0 mm 1 mps 743 mmHg 47%
    11:00 +27°C° 0 mm 2 mps 743 mmHg 44%
    12:00 +28°C° 0 mm 3 mps 743 mmHg 42%
    13:00 +27°C° 0 mm 3 mps 743 mmHg 47%
    14:00 +26°C° 0 mm 3 mps 743 mmHg 51%
    15:00 +25°C° 0 mm 4 mps 743 mmHg 56%
    16:00 +24°C° 0.1 mm 3 mps 743 mmHg 64%
    17:00 +21°C° 0.1 mm 3 mps 744 mmHg 73%
    18:00 +19°C° 0.1 mm 3 mps 744 mmHg 81%
    19:00 +18°C° 0.1 mm 3 mps 745 mmHg 86%
    20:00 +17°C° 0.1 mm 4 mps 745 mmHg 91%
    21:00 +15°C° 0.1 mm 4 mps 746 mmHg 96%
    22:00 +15°C° 0.1 mm 5 mps 746 mmHg 96%
    23:00 +15°C° 0.1 mm 5 mps 746 mmHg 95%

    28 April, Friday

    Time Temperature Precipitation Wind Pressure Humidity
    00:00 +15°C° 0.1 mm 5 mps 746 mmHg 95%
    01:00 +15°C° 0.1 mm 5 mps 746 mmHg 95%
    02:00 +15°C° 0.1 mm 6 mps 746 mmHg 95%
    03:00 +15°C° 0.1 mm 6 mps 746 mmHg 95%
    04:00 +15°C° 0.1 mm 6 mps 746 mmHg 95%
    05:00 +15°C° 0.1 mm 6 mps 746 mmHg 94%
    06:00 +15°C° 0.1 mm 6 mps 746 mmHg 94%
    07:00 +16°C° 0.1 mm 7 mps 746 mmHg 91%
    08:00 +16°C° 0.1 mm 7 mps 746 mmHg 89%
    09:00 +16°C° 0.1 mm 7 mps 746 mmHg 87%
    10:00 +16°C° 0.1 mm 7 mps 746 mmHg 85%
    11:00 +16°C° 0.1 mm 7 mps 746 mmHg 84%
    12:00 +17°C° 0.1 mm 7 mps 746 mmHg 82%
    13:00 +17°C° 0.1 mm 8 mps 746 mmHg 79%
    14:00 +18°C° 0.1 mm 8 mps 746 mmHg 75%
    15:00 +20°C° 0.1 mm 8 mps 746 mmHg 72%
    16:00 +18°C° 0.3 mm 8 mps 746 mmHg 77%
    17:00 +17°C° 0.3 mm 8 mps 746 mmHg 83%
    18:00 +16°C° 0.3 mm 8 mps 746 mmHg 88%
    19:00 +15°C° 0.2 mm 7 mps 747 mmHg 91%
    20:00 +14°C° 0.2 mm 7 mps 747 mmHg 93%
    21:00 +13°C° 0.2 mm 6 mps 748 mmHg 96%
    22:00 +13°C° 0.1 mm 6 mps 747 mmHg 96%
    23:00 +12°C° 0.1 mm 5 mps 747 mmHg 96%

    29 April, Saturday

    Time Temperature Precipitation Wind Pressure Humidity
    00:00 +12°C° 0.1 mm 5 mps 746 mmHg 96%
    01:00 +12°C° 0 mm 5 mps 746 mmHg 96%
    02:00 +12°C° 0 mm 5 mps 746 mmHg 96%
    03:00 +12°C° 0 mm 4 mps 746 mmHg 95%
    04:00 +12°C° 0 mm 4 mps 746 mmHg 94%
    05:00 +13°C° 0 mm 4 mps 746 mmHg 93%
    06:00 +14°C° 0 mm 4 mps 746 mmHg 92%
    07:00 +17°C° 0 mm 4 mps 746 mmHg 85%
    08:00 +19°C° 0 mm 3 mps 746 mmHg 78%
    09:00 +20°C° 0 mm 3 mps 746 mmHg 71%
    10:00 +22°C° 0 mm 4 mps 746 mmHg 66%
    11:00 +23°C° 0 mm 4 mps 746 mmHg 62%
    12:00 +25°C° 0 mm 4 mps 746 mmHg 58%
    13:00 +25°C° 0.2 mm 4 mps 745 mmHg 60%
    14:00 +25°C° 0.2 mm 4 mps 745 mmHg 62%
    15:00 +23°C° 0.2 mm 5 mps 745 mmHg 64%
    16:00 +22°C° 0.1 mm 4 mps 745 mmHg 70%
    17:00 +21°C° 0.1 mm 3 mps 745 mmHg 76%
    18:00 +20°C° 0.1 mm 3 mps 745 mmHg 82%
    19:00 +18°C° 0 mm 2 mps 746 mmHg 86%
    20:00 +17°C° 0 mm 2 mps 746 mmHg 89%
    21:00 +15°C° 0 mm 1 mps 746 mmHg 92%
    22:00 +15°C° 0 mm 1 mps 746 mmHg 91%
    23:00 +15°C° 0 mm 1 mps 746 mmHg 90%

    30 April, Sunday

    Time Temperature Precipitation Wind Pressure Humidity
    00:00 +16°C° 0 mm 1 mps 746 mmHg 88%
    01:00 +15°C° 0 mm 1 mps 746 mmHg 87%
    02:00 +15°C° 0 mm 1 mps 746 mmHg 86%
    03:00 +15°C° 0 mm 1 mps 746 mmHg 85%
    04:00 +16°C° 0 mm 1 mps 746 mmHg 82%
    05:00 +18°C° 0 mm 1 mps 746 mmHg 78%
    06:00 +18°C° 0 mm 1 mps 746 mmHg 75%
    07:00 +21°C° 0 mm 1 mps 746 mmHg 66%
    08:00 +23°C° 0 mm 2 mps 747 mmHg 57%
    09:00 +25°C° 0 mm 2 mps 747 mmHg 48%
    10:00 +26°C° 0 mm 2 mps 746 mmHg 47%
    11:00 +27°C° 0 mm 3 mps 746 mmHg 45%
    12:00 +28°C° 0 mm 3 mps 746 mmHg 44%
    13:00 +27°C° 0 mm 3 mps 746 mmHg 49%
    14:00 +26°C° 0 mm 3 mps 745 mmHg 54%
    15:00 +26°C° 0 mm 3 mps 745 mmHg 58%
    16:00 +24°C° 0.1 mm 3 mps 745 mmHg 66%
    17:00 +23°C° 0.1 mm 2 mps 746 mmHg 73%
    18:00 +20°C° 0.1 mm 2 mps 746 mmHg 81%
    19:00 +18°C° 0.1 mm 2 mps 747 mmHg 85%
    20:00 +17°C° 0.1 mm 2 mps 747 mmHg 90%
    21:00 +15°C° 0.1 mm 2 mps 748 mmHg 94%
    22:00 +15°C° 0.1 mm 2 mps 748 mmHg 93%
    23:00 +16°C° 0.1 mm 2 mps 748 mmHg 93%
    Show more